McCall, ID

5:13 AM MDT on June 28, 2017 (GMT -0600)
McCall

Weather History for KMYL - August, 2013

Change the Weather History Date:

Friday, August 30, 2013

  Actual Average Record
Temperature  
Mean Temperature 63 °F 56 °F  
Max Temperature 80 °F 74 °F 90 °F (1955)
Min Temperature 46 °F 39 °F 25 °F (1956)
Degree Days  
Heating Degree Days 2 9  
Month to date heating degree days 30 170  
Since 1 June heating degree days 310 687  
Since 1 July heating degree days 47 320  
Cooling Degree Days 0 0  
Month to date cooling degree days 57 7  
Year to date cooling degree days 180 23  
Since 1 June cooling degree days 180 23  
Growing Degree Days 13 (Base 50)    
Moisture  
Dew Point 41 °F    
Average Humidity 51    
Maximum Humidity 86    
Minimum Humidity 16    
Precipitation  
Precipitation 0.00 in 0.02 in 0.29 in (1977)
Month to date precipitation 0.32 0.65  
Year to date precipitation 11.57 13.01  
Sea Level Pressure  
Sea Level Pressure 30.06 in    
Wind  
Wind Speed 4 mph (West)    
Max Wind Speed 17 mph    
Max Gust Speed 23 mph    
Visibility 10 miles    
Events      
T = Trace of Precipitation, MM = Missing Value Source: NWS Daily Summary

Daily Weather History Graph

Daily Weather History Graph

Search for Another Location

Airport or City:

Trip Planner

Search our weather history database for the weather conditions in past years. The results will help you decide how hot, cold, wet, or windy it might be!

Date:

Astronomy

Aug. 30, 2013 Rise Set
Actual Time 7:04 AM MDT 8:24 PM MDT
Civil Twilight 6:34 AM MDT 8:54 PM MDT
Nautical Twilight 5:57 AM MDT 9:31 PM MDT
Astronomical Twilight 5:18 AM MDT 10:09 PM MDT
Moon 1:38 AM MDT (8/30) 4:50 PM MDT (8/30)
Length of Visible Light 14h 20m
Length of Day
13h 19m
Waning Crescent, 28% of the Moon is Illuminated
Aug 30
Waning Crescent
Sep 5
New
Sep 12
First Quarter
Sep 19
Full
Sep 26
Last Quarter

Hourly Weather History & Observations

Time (MDT) Temp. Dew Point Humidity Pressure Visibility Wind Dir Wind Speed Gust Speed Precip Events Conditions
12:51 AM 55.9 °F 44.1 °F 64% 30.00 in 10.0 mi NNE 4.6 mph - N/A   Clear
1:51 AM 55.0 °F 44.1 °F 67% 30.02 in 10.0 mi NNE 4.6 mph - N/A   Clear
2:51 AM 54.0 °F 45.0 °F 72% 30.02 in 10.0 mi Calm Calm - N/A   Clear
3:51 AM 48.9 °F 45.0 °F 86% 30.03 in 10.0 mi Calm Calm - N/A   Clear
4:51 AM 48.9 °F 44.1 °F 83% 30.04 in 10.0 mi Calm Calm - N/A   Clear
5:51 AM 48.0 °F 43.0 °F 83% 30.04 in 10.0 mi Calm Calm - N/A   Clear
6:51 AM 46.9 °F 41.0 °F 80% 30.07 in 10.0 mi Calm Calm - N/A   Clear
7:51 AM 48.9 °F 41.0 °F 74% 30.10 in 10.0 mi Calm Calm - N/A   Clear
8:51 AM 54.0 °F 45.0 °F 72% 30.12 in 10.0 mi Calm Calm - N/A   Clear
9:51 AM 61.0 °F 45.0 °F 56% 30.12 in 10.0 mi Calm Calm - N/A   Clear
10:51 AM 66.0 °F 44.1 °F 45% 30.12 in 10.0 mi Variable 3.5 mph - N/A   Clear
11:51 AM 71.1 °F 42.1 °F 35% 30.10 in 7.0 mi South 4.6 mph - N/A   Clear
12:51 PM 75.0 °F 43.0 °F 32% 30.09 in 10.0 mi West 8.1 mph - N/A   Clear
1:51 PM 77.0 °F 41.0 °F 28% 30.07 in 10.0 mi Variable 5.8 mph - N/A   Clear
2:51 PM 80.1 °F 34.0 °F 19% 30.06 in 10.0 mi WSW 10.4 mph - N/A   Clear
3:51 PM 80.1 °F 30.9 °F 17% 30.06 in 9.0 mi South 10.4 mph 19.6 mph N/A   Clear
4:51 PM 80.1 °F 30.0 °F 16% 30.04 in 10.0 mi South 9.2 mph - N/A   Clear
5:18 PM 78.8 °F 30.2 °F 17% 30.16 in 6.0 mi South 11.5 mph - N/A   Haze
5:51 PM 78.1 °F 33.1 °F 19% 30.04 in 10.0 mi SSW 4.6 mph - N/A   Clear
6:51 PM 77.0 °F 37.9 °F 24% 30.04 in 10.0 mi WNW 6.9 mph - N/A   Clear
7:51 PM 75.0 °F 37.9 °F 26% 30.03 in 10.0 mi West 4.6 mph - N/A   Clear
8:51 PM 68.0 °F 41.0 °F 37% 30.04 in 10.0 mi ENE 3.5 mph - N/A   Clear
9:51 PM 62.1 °F 42.1 °F 48% 30.05 in 10.0 mi NE 3.5 mph - N/A   Clear
10:51 PM 64.0 °F 45.0 °F 50% 30.04 in 10.0 mi North 5.8 mph - N/A   Clear
11:51 PM 60.1 °F 45.0 °F 57% 30.04 in 10.0 mi NNE 3.5 mph - N/A   Clear